This is the latest recevied weather packets stored in our database for station/object F5PHW-13. If no packets are shown the sender has not sent any weather packets the latest 10 day(s).
| Time | Temp. | Humidity | Pressure | Rain* | Wind** | Luminosity | Snow |
|---|---|---|---|---|---|---|---|
| 1777758680 | 13.89° C | 85% | 1010.6 hPa | 0 mm | - | - | - |
| 1777757479 | 14.44° C | 85% | 1010.6 hPa | 0 mm | - | - | - |
| 1777756280 | 14.44° C | 85% | 1010.7 hPa | 0 mm | - | - | - |
| 1777755079 | 14.44° C | 85% | 1010.6 hPa | 0 mm | - | - | - |
| 1777753880 | 15° C | 85% | 1010.5 hPa | 0 mm | - | - | - |
| 1777752680 | 15° C | 84% | 1010.4 hPa | 0 mm | - | - | - |
| 1777751481 | 15° C | 83% | 1010.4 hPa | 0 mm | - | - | - |
| 1777750279 | 15° C | 83% | 1010.2 hPa | 0 mm | - | - | - |
| 1777749079 | 15° C | 82% | 1010.1 hPa | 0 mm | - | - | - |
| 1777747880 | 15.56° C | 81% | 1009.9 hPa | 0 mm | - | - | - |
| 1777746679 | 16.11° C | 80% | 1009.8 hPa | 0 mm | - | - | - |
| 1777745479 | 16.67° C | 79% | 1009.5 hPa | 0 mm | - | - | - |
| 1777744280 | 17.22° C | 77% | 1009.6 hPa | 0 mm | - | - | - |
| 1777743080 | 16.67° C | 77% | 1009.7 hPa | 0 mm | - | - | - |
| 1777741880 | 17.22° C | 77% | 1009.8 hPa | 0 mm | - | - | - |
| 1777740676 | 17.22° C | 78% | 1009.7 hPa | 0 mm | - | - | - |
| 1777739476 | 17.22° C | 80% | 1010 hPa | 0 mm | - | - | - |
| 1777738276 | 16.67° C | 80% | 1010.3 hPa | 0 mm | - | - | - |
| 1777737076 | 16.67° C | 79% | 1010.1 hPa | 0 mm | - | - | - |
| 1777735877 | 16.67° C | 79% | 1010.3 hPa | 0 mm | - | - | - |
| 1777734676 | 16.67° C | 79% | 1010.6 hPa | 0.25 mm | - | - | - |
| 1777733477 | 16.67° C | 80% | 1010.8 hPa | 0 mm | - | - | - |
| 1777732276 | 16.67° C | 80% | 1010.8 hPa | 0.25 mm | - | - | - |
| 1777731076 | 17.22° C | 79% | 1011.2 hPa | 0.25 mm | - | - | - |
| 1777729876 | 17.78° C | 78% | 1011.3 hPa | 0.51 mm | - | - | - |
* Rain latest hour (hover to see other rain measurements)
** Current wind speed in m/s (hover to see current wind gust speed)